Weather History for Rochelle, IL

Change the Weather History Date:

Wednesday, August 28, 2013

  Actual Average (KRFD) Record (KRFD)
Temperature  
Mean Temperature 76 °F 70 °F  
Max Temperature 84 °F 81 °F 97 °F (1955)
Min Temperature 67 °F 60 °F 38 °F (1915)
Degree Days  
Heating Degree Days 0 1  
Month to date heating degree days 3  
Since 1 June heating degree days 37  
Since 1 July heating degree days 6  
Cooling Degree Days 11 6  
Month to date cooling degree days 206  
Year to date cooling degree days 710  
Since 1 June cooling degree days 655  
Growing Degree Days 26 (Base 50)    
Moisture  
Dew Point 69 °F    
Average Humidity 79    
Maximum Humidity 92    
Minimum Humidity 67    
Precipitation  
Precipitation 0.00 in 0.14 in 2.30 in (1936)
Month to date precipitation 4.18  
Year to date precipitation 25.25  
Snow  
Snow 0.00 in 0.00 in 0.00 in ()
Month to date snowfall 0.0  
Since 1 June snowfall 0.0  
Since 1 July snowfall 0.0  
Snow Depth -    
Sea Level Pressure  
Sea Level Pressure 29.97 in    
Wind  
Wind Speed 6 mph (NNE)    
Max Wind Speed 12 mph    
Max Gust Speed -    
Visibility 10 miles    
Events      
T = Trace of Precipitation, MM = Missing Value Source: NWS Daily Summary

Daily Weather History Graph

Daily Weather History Graph

Search for Another Location

Airport:

Trip Planner

Search our weather history database for the weather conditions in past years. The results will help you decide how hot, cold, wet, or windy it might be!

Date:

Astronomy

Aug. 28, 2013 Rise Set
Actual Time 6:18 AM CDT 7:35 PM CDT
Civil Twilight 5:49 AM CDT 8:04 PM CDT
Nautical Twilight 5:14 AM CDT 8:39 PM CDT
Astronomical Twilight 4:37 AM CDT 9:15 PM CDT
Moon No Moon Rise 2:16 PM CDT (8/28)
Length of Visible Light 14h 15m
Length of Day
13h 17m
Waning Gibbous, 47% of the Moon is Illuminated
Aug 28
Waning Gibbous
Sep 5
New
Sep 12
First Quarter
Sep 19
Full
Sep 26
Last Quarter

Hourly Weather History & Observations

Time (CDT) Temp. Heat Index Dew Point Humidity Pressure Visibility Wind Dir Wind Speed Gust Speed Precip Events Conditions
12:15 AM 74.3 °F - 67.1 °F 78% 29.89 in 10.0 mi WSW 6.9 mph - N/A   Clear
12:35 AM 75.6 °F - 66.2 °F 73% 29.89 in 10.0 mi WSW 10.4 mph - N/A   Clear
12:55 AM 76.5 °F - 65.5 °F 69% 29.89 in 10.0 mi WSW 10.4 mph - N/A   Clear
1:15 AM 76.3 °F - 65.3 °F 69% 29.89 in 10.0 mi WSW 11.5 mph - N/A   Clear
1:35 AM 76.1 °F - 64.9 °F 68% 29.88 in 10.0 mi WSW 10.4 mph - N/A   Clear
1:55 AM 75.7 °F - 65.1 °F 69% 29.88 in 10.0 mi WSW 8.1 mph - N/A   Clear
2:15 AM 74.8 °F - 65.3 °F 72% 29.88 in 10.0 mi WSW 9.2 mph - N/A   Clear
2:35 AM 74.5 °F - 65.3 °F 73% 29.88 in 10.0 mi WSW 6.9 mph - N/A   Clear
2:55 AM 73.6 °F - 65.3 °F 75% 29.88 in 10.0 mi West 6.9 mph - N/A   Clear
3:15 AM 73.4 °F - 65.3 °F 76% 29.88 in 10.0 mi WSW 6.9 mph - N/A   Clear
3:35 AM 73.4 °F - 65.3 °F 76% 29.88 in 10.0 mi WSW 8.1 mph - N/A   Clear
3:55 AM 72.7 °F - 65.5 °F 78% 29.89 in 10.0 mi WSW 5.8 mph - N/A   Clear
4:15 AM 72.1 °F - 65.8 °F 80% 29.89 in 10.0 mi West 4.6 mph - N/A   Clear
4:35 AM 70.3 °F - 66.2 °F 87% 29.90 in 10.0 mi Calm Calm - N/A   Clear
4:55 AM 70.7 °F - 66.2 °F 86% 29.90 in 10.0 mi SW 3.5 mph - N/A   Clear
5:15 AM 69.8 °F - 66.2 °F 88% 29.91 in 10.0 mi WSW 4.6 mph - N/A   Clear
5:35 AM 69.3 °F - 66.2 °F 90% 29.91 in 10.0 mi SW 5.8 mph - N/A   Clear
5:55 AM 68.9 °F - 66.2 °F 91% 29.92 in 10.0 mi Calm Calm - N/A   Clear
6:15 AM 69.1 °F - 66.4 °F 91% 29.93 in 10.0 mi Calm Calm - N/A   Mostly Cloudy
6:35 AM 68.9 °F - 66.4 °F 92% 29.94 in 10.0 mi Calm Calm - N/A   Scattered Clouds
6:55 AM 68.9 °F - 66.6 °F 92% 29.94 in 7.0 mi Calm Calm - N/A   Scattered Clouds
7:15 AM 69.8 °F - 67.1 °F 91% 29.95 in 10.0 mi Calm Calm - N/A   Mostly Cloudy
7:35 AM 71.6 °F - 67.3 °F 86% 29.95 in 10.0 mi Calm Calm - N/A   Scattered Clouds
7:55 AM 73.2 °F - 68.0 °F 84% 29.95 in 10.0 mi Calm Calm - N/A   Clear
8:15 AM 74.7 °F - 68.5 °F 81% 29.95 in 10.0 mi WSW 3.5 mph - N/A   Clear
8:35 AM 76.5 °F - 69.6 °F 79% 29.95 in 10.0 mi Calm Calm - N/A   Clear
8:55 AM 78.1 °F - 70.7 °F 78% 29.95 in 10.0 mi NW 4.6 mph - N/A   Clear
9:15 AM 78.8 °F - 70.7 °F 76% 29.96 in 10.0 mi North 5.8 mph - N/A   Clear
9:35 AM 79.5 °F - 71.1 °F 75% 29.97 in 10.0 mi North 5.8 mph - N/A   Clear
9:55 AM 79.9 °F - 72.0 °F 77% 29.98 in 10.0 mi NNE 8.1 mph - N/A   Mostly Cloudy
10:15 AM 80.4 °F 84.4 °F 72.0 °F 75% 29.98 in 10.0 mi NNE 10.4 mph - N/A   Overcast
10:35 AM 80.6 °F 85.0 °F 72.7 °F 77% 29.98 in 10.0 mi NNE 8.1 mph - N/A   Mostly Cloudy
10:55 AM 80.1 °F 84.1 °F 72.7 °F 78% 29.99 in 7.0 mi NE 9.2 mph - N/A   Scattered Clouds
11:15 AM 80.2 °F 84.6 °F 73.0 °F 79% 29.99 in 7.0 mi NE 6.9 mph - N/A   Scattered Clouds
11:35 AM 80.1 °F 84.1 °F 72.7 °F 78% 29.99 in 7.0 mi NNE 8.1 mph - N/A   Scattered Clouds
11:55 AM 81.5 °F 86.7 °F 73.4 °F 76% 29.99 in 10.0 mi NE 10.4 mph - N/A   Mostly Cloudy
12:15 PM 80.8 °F 85.4 °F 72.9 °F 77% 29.99 in 7.0 mi NNE 5.8 mph - N/A   Mostly Cloudy
12:35 PM 80.6 °F 85.0 °F 72.7 °F 77% 30.00 in 7.0 mi NE 5.8 mph - N/A   Mostly Cloudy
12:55 PM 80.8 °F 85.4 °F 73.0 °F 77% 30.00 in 7.0 mi North 4.6 mph - N/A   Mostly Cloudy
1:15 PM 80.8 °F 85.4 °F 72.9 °F 77% 30.00 in 10.0 mi NE 8.1 mph - N/A   Overcast
1:35 PM 80.6 °F 85.0 °F 72.7 °F 77% 30.00 in 10.0 mi ENE 6.9 mph - N/A   Overcast
1:55 PM 80.6 °F 85.0 °F 72.7 °F 77% 30.00 in 10.0 mi NE 8.1 mph - N/A   Overcast
2:15 PM 81.0 °F 85.4 °F 72.5 °F 75% 30.00 in 10.0 mi NE 8.1 mph - N/A   Overcast
2:35 PM 80.8 °F 85.1 °F 72.3 °F 75% 30.00 in 10.0 mi NNE 6.9 mph - N/A   Overcast
2:55 PM 81.5 °F 86.1 °F 72.1 °F 73% 30.00 in 10.0 mi ENE 5.8 mph - N/A   Mostly Cloudy
3:15 PM 81.0 °F 85.4 °F 72.3 °F 75% 30.00 in 10.0 mi North 8.1 mph - N/A   Overcast
3:35 PM 82.4 °F 87.2 °F 71.8 °F 70% 30.00 in 10.0 mi NNE 4.6 mph - N/A   Scattered Clouds
3:55 PM 83.3 °F 88.7 °F 72.3 °F 69% 30.00 in 10.0 mi NE 3.5 mph - N/A   Clear
4:15 PM 82.9 °F 88.0 °F 72.0 °F 69% 30.00 in 10.0 mi Calm Calm - N/A   Clear
4:35 PM 83.5 °F 89.4 °F 72.9 °F 70% 30.00 in 10.0 mi Calm Calm - N/A   Clear
4:55 PM 84.2 °F 90.6 °F 72.9 °F 69% 30.00 in 10.0 mi NE 4.6 mph - N/A   Clear
5:15 PM 84.6 °F 90.7 °F 72.5 °F 67% 30.00 in 10.0 mi NNE 6.9 mph - N/A   Clear
5:35 PM 82.9 °F 88.5 °F 72.5 °F 71% 30.00 in 10.0 mi NE 5.8 mph - N/A   Clear
5:55 PM 82.0 °F 86.7 °F 71.8 °F 71% 30.00 in 10.0 mi NE 5.8 mph - N/A   Scattered Clouds
6:15 PM 82.6 °F 87.1 °F 70.9 °F 68% 30.00 in 10.0 mi NE 8.1 mph - N/A   Clear
6:35 PM 82.0 °F 86.1 °F 70.5 °F 68% 30.01 in 10.0 mi NE 5.8 mph - N/A   Clear
6:55 PM 81.0 °F 84.7 °F 70.7 °F 71% 30.01 in 10.0 mi NE 5.8 mph - N/A   Clear
7:15 PM 79.2 °F - 70.3 °F 74% 30.01 in 10.0 mi ENE 5.8 mph - N/A   Clear
7:35 PM 77.0 °F - 70.9 °F 81% 30.01 in 10.0 mi ENE 5.8 mph - N/A   Clear
7:55 PM 76.8 °F - 70.2 °F 80% 30.02 in 10.0 mi ENE 5.8 mph - N/A   Clear
8:15 PM 76.3 °F - 70.0 °F 81% 30.03 in 10.0 mi East 5.8 mph - N/A   Clear
8:35 PM 76.1 °F - 69.3 °F 79% 30.03 in 10.0 mi East 6.9 mph - N/A   Clear
8:55 PM 74.3 °F - 69.1 °F 84% 30.04 in 10.0 mi ENE 5.8 mph - N/A   Clear
9:15 PM 73.2 °F - 68.9 °F 86% 30.04 in 10.0 mi East 4.6 mph - N/A   Clear
9:35 PM 72.5 °F - 68.9 °F 88% 30.04 in 10.0 mi East 4.6 mph - N/A   Clear
9:55 PM 71.1 °F - 68.2 °F 91% 30.05 in 10.0 mi Calm Calm - N/A   Clear
10:15 PM 70.7 °F - 68.0 °F 91% 30.06 in 10.0 mi Calm Calm - N/A   Clear
10:35 PM 70.2 °F - 67.6 °F 92% 30.06 in 10.0 mi Calm Calm - N/A   Clear
10:55 PM 69.3 °F - 66.6 °F 91% 30.05 in 10.0 mi ENE 4.6 mph - N/A   Clear
11:15 PM 69.3 °F - 66.0 °F 89% 30.06 in 10.0 mi ENE 4.6 mph - N/A   Clear
11:35 PM 68.7 °F - 65.3 °F 89% 30.05 in 10.0 mi ENE 5.8 mph - N/A   Clear
11:55 PM 67.3 °F - 64.6 °F 91% 30.05 in 10.0 mi NE 5.8 mph - N/A   Clear